Regional Weather Roundup
Issued by NWS

Home | Current Version | Previous Version | Text Only | Print | Product List | Glossary On
Versions: 1 2 3 4 5 6 7 8 9 10 11 12 13 14 15 16 17 18 19 20 21 22 23 24 25 26 27 28 29 30 31 32 33 34 35 36 37 38 39 40 41 42 43 44 45 46 47 48 49 50
000
ASHW40 PHFO 092312
RWRHI

WEATHER ROUNDUP FOR HAWAII
NATIONAL WEATHER SERVICE HONOLULU HI
100 PM HST TUE FEB 09 2016

THIS IS AN AUTOMATED REPORT THAT HAS NOT BEEN QUALITY CONTROLLED.

NOTE..."FAIR" INDICATES FEW OR NO CLOUDS BELOW 12,000 FEET WITH NO
SIGNIFICANT WEATHER AND/OR OBSTRUCTIONS TO VISIBILITY.

* - THESE SITES REPORT LIMITED FIELDS

HIZ001>004-100000-
KAUAI-NIIHAU-

CITY           SKY/WX    TMP DP  RH WIND       PRES   REMARKS
LIHUE APT      MOSUNNY   76  54  46 SE10      30.05F
PORT ALLEN*      N/A     77 N/A N/A S8          N/A
POIPU*           N/A     77 N/A N/A S5          N/A
PRINCEVILLE*     N/A     77 N/A N/A N3          N/A
KOKOLE POINT*  NOT AVBL
MOLOAA DAIRY*    N/A     77  57  50 E7G13       N/A
WAIMEA HTS*    NOT AVBL
PUU OPAE*      NOT AVBL
PUU LUA*       NOT AVBL
MAKAHA RIDGE*  NOT AVBL
$$

HIZ005>011-100000-
OAHU-

CITY           SKY/WX    TMP DP  RH WIND       PRES   REMARKS
HONOLULU       MOSUNNY   77  55  46 S8        30.03F
KALAELOA       SUNNY     78  56  46 S7        30.05F
KANEOHE MCB    SUNNY     77  58  51 NE10      30.01F
WHEELER FIELD  FAIR      73  56  54 N9        30.04F
BELLOWS*       NOT AVBL
KAHUKU*        NOT AVBL
WHEELER*       NOT AVBL
WAIANAE HARBOR NOT AVBL
DILLINGHAM*      N/A     81  55  41 MISG        N/A
KAHUKU TRN*      N/A     75  55  50 E3G12       N/A
KAWAILOA*        N/A     75  55  50 W5G13       N/A
KII*             N/A     75  59  57 NE7         N/A
MAKUA RANGE*     N/A     77  57  50 W5          N/A
OAHU FOREST NW NOT AVBL
SCHOFIELD BRK*   N/A     52  34  50 MISG        N/A
SCHOFIELD S*   NOT AVBL
WAIANAE VLY*   NOT AVBL
KUAOKALA*      NOT AVBL
HONOULIUULI*   NOT AVBL
MOKUOLOE IS*   NOT AVBL
PALEHUA*       NOT AVBL
WAIAWA PHB*    NOT AVBL
$$

HIZ012>013-100000-
MOLOKAI-

CITY           SKY/WX    TMP DP  RH WIND       PRES   REMARKS
MOLOKAI AIRPT  SUNNY     77  53  43 VRB5      30.04F
KALAUPAPA      NOT AVBL
MAKAPULAPAI*   NOT AVBL
MOLOKAI 1*     NOT AVBL
PUU ALII*      NOT AVBL
$$

HIZ016-100000-
KAHOOLAWE-

CITY           SKY/WX    TMP DP  RH WIND       PRES   REMARKS
KAHOOLAWE*     NOT AVBL
HAKIOAWA*      NOT AVBL
HONOKANAIA*      N/A     81  59  46 W5G17       N/A
KANELOA*         N/A     75  61  60 E9G22     30.12F
KEALIALALO*    NOT AVBL
LUA MAKIKA*    NOT AVBL
$$

HIZ014>015-100000-
LANAI-

CITY           SKY/WX    TMP DP  RH WIND       PRES   REMARKS
LANAI CITY     FAIR      73  51  46 W9        30.07F
LANAI 1*       NOT AVBL
$$

HIZ017>028-100000-
MAUI-

CITY           SKY/WX    TMP DP  RH WIND       PRES   REMARKS
KAHULUI        MOSUNNY   80  57  45 N8        30.03F
KAPALUA-W MAUI MOSUNNY   77  55  47 W7        30.04
HANA AIRPORT   NOT AVBL
HANA*            N/A     75 N/A N/A E10G16      N/A
HALEAKALA SUMM   N/A     55  14  19 S8          N/A
MAALAEA BAY*   NOT AVBL
HALEAKALA*     NOT AVBL
KAUPO GAP*     NOT AVBL
KULA 1*          N/A     58  49  72 W5G10       N/A
$$

HIZ023>026-100000-
BIG ISLAND OF HAWAII COAST AND LOWER SLOPES-

CITY           SKY/WX    TMP DP  RH WIND       PRES   REMARKS
KAILUA KONA    NOT AVBL
HILO           SUNNY     81  60  48 E12       30.01F
HONOKAA*         N/A     72 N/A N/A VRB1        N/A
KAWAIHAE MWT*    N/A     77 N/A N/A NW10        N/A
KAWAIHAE*      NOT AVBL
SOUTH POINT*     N/A     75 N/A N/A NE10G20     N/A
UPOLU AIRPORT*   N/A    N/A N/A N/A NE14G20     N/A
KAMUELA*       NOT AVBL
HAKALAU*         N/A     67  42  41 S6G14       N/A
KALOKO-HONOKO* NOT AVBL
PALI 2*          N/A     70  54  56 SE7G15      N/A
KEALAKOMO*       N/A     81  57  44 E12         N/A
KAUPULEHU*     NOT AVBL
KAPAPALA*        N/A     75  57  52 SE5G13      N/A
LOWER KAHUKU*  NOT AVBL
PUHE CS*       NOT AVBL
PUHO CS*       NOT AVBL
PTA KEAMUKU*     N/A     70  52  52 CALM        N/A
WAIKOLOA*      NOT AVBL
$$

HIZ027>028-100000-
BIG ISLAND OF HAWAII INTERIOR AND SUMMMITS-

CITY           SKY/WX    TMP DP  RH WIND       PRES   REMARKS
BRADSHAW FIELD NOT AVBL
MK VISITOR CEN   N/A     55  28  35 W3          N/A
MAUNA KEA*       N/A     43  -2  15 N9G21       N/A
MAUNA LOA*     NOT AVBL
MAUNA LOA 1*   NOT AVBL
PTA KIPUKA*      N/A     37  12  35 N5G10       N/A
PTA RANGE 17*    N/A     39  14  35 NW6G14      N/A
PTA WEST*        N/A    N/A N/A N/A NW10G16     N/A
NENE CABIN*    NOT AVBL
AHUMOA*        NOT AVBL
PTA PORTABLE*  NOT AVBL
PUU MALI*        N/A     61  46  59 W8G14       N/A
$$

HIC003-100000-
NORTHWEST ISLANDS-

CITY           SKY/WX    TMP DP  RH WIND       PRES   REMARKS
MIDWAY ISLAND  CLOUDY    66  59  77 E12       30.06F
MIDWAY NOS*    NOT AVBL
FRENCH FRIGATE NOT AVBL
$$

PHZ110>124-180-100000-
BUOY REPORTS

STATION/POSITION TIME  TEMP    WIND        PRES    WAVE   SWELL
                       AIR SEA DIR/SP/G            HT/PER HT/DIR
                 (UTC) (F)     (DEG/KT/KT) (MB)    (FT/S) (FT/D)
BUOY 51001       2200   72 75  240/  8/ 14 1017.4F
BUOY 51101       2250   72 75  260/ 10/ 14 1016.5F   9/10   8/340
BUOY 51100       NOT AVBL
BUOY 51002       2250   76 78   60/ 14/ 16 1015.1F  10/14   8/350
BUOY 51003       2250   74 78   40/  8/  8 1017.0F   9/13   8/360
BUOY 51004       2250   76 78   70/ 12/ 16 1015.1F  11/14  10/320
BARBERS PT BUOY  NOT AVBL
WAIMEA BAY BUOY  2204      78                N/A     7/13   5/350
KAILUA BAY BUOY  2211      78                N/A     7/12   5/360
LANAI BUOY       NOT AVBL
BARBERS PT 2     2303      78                N/A     5/11   3/320
PAUWELA MAUI     2207      77                N/A     9/13   8/330
HILO             NOT AVBL
KANEOHE BAY BUOY 2206      77                N/A     5/13   3/ 10
HANALEI KAUAI    2301      79                N/A     8/11   5/320
KAHULUI HARBOR   2200   73 76   10/  6/  9 1017.3F
HONOLULU HARBOR  2200   73 76  210/  6/  8 1018.5F
KILO NALU        NOT AVBL
HILO HARBOR      2200   73 76   10/  9/ 13 1017.0F
MOKUOLOE         2200   75 76  100/  3/  5 1017.9F
NAWILIWILI       2200   73 77  140/  6/  8 1018.3F
WHOTS BUOY       NOT AVBL
BUOY 51028       NOT AVBL
$$

......................KEY........................................
  SKY/WX - SKY CONDITIONS/PRESENT WEATHER
  TMP    - TEMPERATURE IN FAHRENHEIT
  DWPT   - DEWPOINT IN FAHRENHEIT
  RH     - RELATIVE HUMIDITY IN PERCENT
  WIND   - DIRECTION AND SPEED /MPH FOR ISLANDS...KTS FOR BUOYS/
  PRES   - MEAN SEA LEVEL PRESSURE IN INCHES OF HG
  VSB    - VISIBILITY IN MILES
  HX     - HEAT INDEX
  WCI    - WIND CHILL INDEX
  VRB    - VARIABLE WIND DIRECTION
  N/A    - NOT AVAILABLE



USA.gov is the U.S. government's official web portal to all federal, state and local government web resources and services.